Grand Forks, ND

8:01 AM CDT on July 26, 2017 (GMT -0500)
Grand Forks International

Weather History for KGFK - January, 2013

Change the Weather History Date:

Monday, January 14, 2013

  Actual Average Record
Temperature  
Mean Temperature 3 °F 6 °F  
Max Temperature 9 °F 16 °F 42 °F (1942)
Min Temperature -4 °F -4 °F -29 °F (2005)
Degree Days  
Heating Degree Days 62 59  
Month to date heating degree days 711 818  
Since 1 July heating degree days 4469 4677  
Cooling Degree Days 0 0  
Month to date cooling degree days 0 0  
Year to date cooling degree days 0 0  
Moisture  
Dew Point -5 °F    
Average Humidity 78    
Maximum Humidity 87    
Minimum Humidity 69    
Precipitation  
Precipitation T in 0.01 in 0.23 in (2011)
Month to date precipitation 0.28 0.26  
Year to date precipitation 0.28 0.26  
Snow  
Snow T in 0.30 in 3.50 in (2011)
Month to date snowfall 2.2 5.1  
Since 1 July snowfall 17.2 25.0  
Snow Depth 5.00 in    
Sea Level Pressure  
Sea Level Pressure 30.28 in    
Wind  
Wind Speed 8 mph (SW)    
Max Wind Speed 15 mph    
Max Gust Speed 17 mph    
Visibility 10 miles    
Events      
T = Trace of Precipitation, MM = Missing Value Source: NWS Daily Summary

Daily Weather History Graph

Daily Weather History Graph

Search for Another Location

Airport or City:

Trip Planner

Search our weather history database for the weather conditions in past years. The results will help you decide how hot, cold, wet, or windy it might be!

Date:

Astronomy

Jan. 14, 2013 Rise Set
Actual Time 8:13 AM CST 5:02 PM CST
Civil Twilight 7:38 AM CST 5:37 PM CST
Nautical Twilight 7:00 AM CST 6:16 PM CST
Astronomical Twilight 6:23 AM CST 6:53 PM CST
Moon 9:30 AM CST (1/14) 9:09 PM CST (1/14)
Length of Visible Light 9h 58m
Length of Day
8h 48m
Waxing Crescent, 11% of the Moon is Illuminated
Jan 14
Waxing Crescent
Jan 18
First Quarter
Jan 26
Full
Feb 3
Last Quarter
Feb 10
New

Hourly Weather History & Observations

Time (CST) Temp. Windchill Dew Point Humidity Pressure Visibility Wind Dir Wind Speed Gust Speed Precip Events Conditions
12:53 AM 5.0 °F -6.9 °F -2.0 °F 73% 30.28 in 10.0 mi WNW 6.9 mph - 0.00 in   Overcast
1:49 AM 1.4 °F -9.9 °F -4.0 °F 78% 30.21 in 10.0 mi West 5.8 mph - N/A   Scattered Clouds
1:53 AM 1.9 °F -9.2 °F -4.0 °F 76% 30.29 in 10.0 mi West 5.8 mph - N/A   Scattered Clouds
2:53 AM -2.0 °F -15.4 °F -8.0 °F 76% 30.30 in 10.0 mi West 6.9 mph - N/A   Partly Cloudy
3:53 AM -4.0 °F -17.8 °F -9.0 °F 79% 30.30 in 10.0 mi SW 6.9 mph - N/A   Partly Cloudy
4:53 AM -2.0 °F -15.4 °F -8.0 °F 76% 30.29 in 10.0 mi WSW 6.9 mph - N/A   Mostly Cloudy
5:53 AM -0.4 °F -12.0 °F -5.8 °F 78% 30.21 in 10.0 mi WSW 5.8 mph - N/A   Overcast
6:53 AM -0.9 °F -14.1 °F -6.0 °F 79% 30.30 in 10.0 mi WSW 6.9 mph - N/A   Partly Cloudy
7:53 AM -2.0 °F -16.6 °F -8.0 °F 76% 30.32 in 10.0 mi WSW 8.1 mph - N/A   Partly Cloudy
8:53 AM -2.0 °F -15.4 °F -9.0 °F 72% 30.33 in 10.0 mi WSW 6.9 mph - N/A   Scattered Clouds
9:53 AM -0.9 °F -12.7 °F -8.0 °F 72% 30.34 in 10.0 mi WSW 5.8 mph - N/A   Scattered Clouds
10:53 AM 1.0 °F -8.7 °F -7.1 °F 69% 30.35 in 10.0 mi WSW 4.6 mph - N/A   Mostly Cloudy
11:53 AM 1.9 °F -10.6 °F -5.1 °F 72% 30.33 in 10.0 mi SSW 6.9 mph - N/A   Mostly Cloudy
12:53 PM 5.0 °F -9.1 °F -2.9 °F 70% 30.32 in 10.0 mi South 9.2 mph - N/A   Scattered Clouds
1:53 PM 7.0 °F -5.7 °F -0.9 °F 70% 30.29 in 10.0 mi SW 8.1 mph - N/A   Partly Cloudy
2:53 PM 9.0 °F -3.2 °F -0.0 °F 67% 30.28 in 10.0 mi SSW 8.1 mph - N/A   Mostly Cloudy
3:53 PM 7.0 °F -9.8 °F -0.0 °F 73% 30.27 in 10.0 mi South 13.8 mph - N/A   Mostly Cloudy
4:53 PM 5.0 °F -8.1 °F -0.9 °F 76% 30.27 in 10.0 mi SSW 8.1 mph - N/A   Scattered Clouds
5:53 PM 1.9 °F -10.6 °F -2.9 °F 80% 30.27 in 10.0 mi SSW 6.9 mph - N/A   Partly Cloudy
6:53 PM 1.9 °F -12.9 °F -4.0 °F 76% 30.27 in 10.0 mi South 9.2 mph - N/A   Mostly Cloudy
7:53 PM 1.0 °F -11.7 °F -4.0 °F 79% 30.26 in 10.0 mi SSW 6.9 mph - N/A   Clear
8:53 PM -0.9 °F -15.3 °F -5.1 °F 83% 30.25 in 10.0 mi SSW 8.1 mph - N/A   Clear
9:53 PM -2.2 °F -16.8 °F -5.8 °F 85% 30.16 in 10.0 mi South 8.1 mph - N/A   Clear
10:53 PM -0.9 °F -15.3 °F -5.1 °F 83% 30.21 in 10.0 mi South 8.1 mph - N/A   Scattered Clouds
11:53 PM -0.0 °F -14.2 °F -4.0 °F 83% 30.20 in 10.0 mi South 8.1 mph - N/A   Mostly Cloudy